Lid_Strength_Index
-2 -2 -2 -2 -1 -2 -2 -1 -1 -1 -1 0 -0 0 -0 -0 0 2 6 3 2 1 3 4 5 5 6 7 5 5 10 12 11 10 9 8 9 6 5 7 6 5 5 4 2
-0 -2 -2 -2 -1 -1 -1 -2 -1 -1 -1 -1 -1 -0 -0 -0 2 5 1 -0 1 0 4 6 7 6 8 8 7 8 11 10 7 7 10 8 9 8 7 8 7 6 4 3 3
-1 -0 -1 -1 -1 -1 -1 -1 -2 -1 -1 -1 -1 -1 -1 -1 4 5 -1 -0 0 1 3 5 6 7 9 7 8 7 10 7 7 8 9 9 9 8 8 8 7 7 6 4 4
-1 -1 0 -0 -1 -1 -1 -1 -1 -1 -1 -1 -1 -1 -1 1 10 2 0 1 0 0 3 6 7 9 10 10 7 9 8 7 6 8 9 10 9 9 9 8 5 4 4 4 5
-1 -1 -1 0 0 -1 -1 -1 -1 -1 -1 -1 -1 -1 1 5 5 -0 -2 -1 1 2 4 7 8 9 10 9 8 9 8 8 6 8 9 9 10 10 10 8 6 4 4 5 4
-1 -1 -1 -1 0 0 -1 -1 -1 -1 -1 -1 -1 -1 3 8 0 -1 -0 0 2 2 5 6 8 8 10 10 9 7 8 8 7 7 7 10 10 10 10 8 8 5 5 4 4
-2 -2 -1 -1 -1 -0 -0 -1 -1 -1 -1 -1 -1 0 4 5 0 -1 -0 1 0 2 3 5 6 9 10 11 9 10 12 11 10 8 8 8 11 11 9 8 8 9 6 4 4
-1 -1 -2 -1 -1 -1 -0 -0 -0 -1 -1 -1 -1 1 6 1 0 1 0 1 0 1 2 1 3 7 9 10 11 13 13 15 11 10 8 8 13 10 9 9 9 9 9 8 4
-2 -2 -2 -1 -1 -1 -1 0 -0 -0 -1 0 2 3 7 -0 3 1 1 3 2 1 1 1 2 8 9 12 15 15 17 15 13 9 10 12 14 9 8 11 10 10 9 9 8
-1 -1 -1 -1 -1 -1 -1 -0 0 -0 -0 0 2 6 5 6 3 2 1 2 3 3 5 5 6 9 10 13 19 17 17 15 15 11 11 13 14 11 11 12 11 11 11 10 9
-1 -1 -1 -1 -1 -1 -1 1 5 5 3 6 6 6 6 3 1 3 2 3 3 5 10 8 11 13 11 10 12 14 15 16 14 13 15 15 15 12 10 12 13 13 13 12 11
-1 -1 -1 -1 -1 -1 -0 4 4 4 8 4 4 5 4 4 6 4 2 6 7 10 8 10 13 9 8 8 10 12 15 16 13 12 15 15 16 14 12 12 12 12 12 12 12
-2 -1 -1 -1 -1 -0 2 2 -0 1 8 7 5 5 5 4 7 7 4 6 8 10 10 12 10 8 9 10 11 11 14 15 14 13 14 15 18 16 13 13 12 12 12 11 11
-2 -1 -1 -1 1 1 3 -0 -1 0 12 11 8 6 5 4 8 4 4 6 8 10 10 10 8 9 10 11 10 13 10 12 13 15 20 15 23 18 15 15 14 14 13 12 12
-2 -1 -1 -2 1 3 1 -1 -1 2 20 9 8 3 5 7 7 6 3 6 10 10 10 12 10 10 11 11 9 11 9 11 12 14 16 18 21 19 15 17 15 14 13 13 13
-2 -1 -1 -0 0 0 -1 -1 2 13 20 12 8 9 9 8 8 6 6 5 6 9 9 10 8 9 9 8 8 8 10 11 12 14 20 17 19 21 17 16 15 15 14 12 12
-1 -1 -1 -1 3 -1 -1 3 13 17 10 13 12 9 9 10 9 9 10 10 13 17 15 11 11 9 8 10 9 10 13 19 20 20 21 15 17 18 15 14 14 14 13 12 12
-1 -1 -1 -0 -1 -1 2 9 17 14 14 9 10 10 12 10 10 9 11 12 10 11 13 16 17 11 9 10 13 12 12 18 23 21 19 15 19 16 12 12 12 11 12 12 13
-1 0 1 0 -1 0 6 14 15 12 10 11 10 13 13 11 11 11 11 12 10 9 15 15 15 9 9 8 9 12 15 11 15 18 20 17 15 12 11 11 11 11 11 12 13
2 3 3 -0 -0 3 9 12 12 8 8 9 14 12 15 13 13 12 12 10 10 8 8 12 16 10 9 8 8 10 9 16 15 23 23 18 18 16 13 12 11 11 12 12 13
3 7 2 0 1 7 12 12 11 7 7 10 12 13 12 13 13 13 13 9 8 8 8 10 13 13 10 12 13 12 14 13 13 15 19 20 18 13 12 11 11 11 11 11 12
4 10 2 1 9 8 11 11 8 9 7 8 9 10 12 11 13 14 13 11 8 8 11 9 12 17 14 9 9 10 12 13 17 19 16 16 17 10 10 10 11 11 11 12 13
8 8 3 3 12 11 10 10 9 9 9 9 10 9 9 12 14 12 11 9 8 9 11 9 14 19 16 13 10 12 11 11 12 13 16 19 18 10 9 10 10 11 12 12 13
6 11 8 7 6 10 10 11 11 8 9 8 9 8 10 11 10 13 11 9 8 8 7 8 13 17 19 15 13 15 13 12 13 17 16 15 15 12 10 10 10 11 12 13 13
6 9 9 11 10 8 9 10 11 11 9 9 10 10 11 13 12 13 10 10 8 8 8 10 18 14 13 13 13 14 13 13 14 14 16 15 14 12 10 10 10 11 11 12 13
7 8 7 8 8 9 9 11 11 11 11 12 11 10 10 14 12 13 10 10 11 9 10 9 16 14 18 12 13 14 12 12 12 13 14 14 13 9 8 9 11 11 11 12 13
5 4 6 8 8 10 10 10 10 10 10 9 9 11 12 10 8 8 8 8 8 10 11 12 13 17 21 13 15 20 15 13 12 11 12 16 12 9 10 10 10 10 11 12 13